Temp
64 64 64 64 64 64 64 64 64 64 64 64 64 63 63 63 63 67 73 77 77 70 70 79 78 77 76 72 72 69 56 54 60 59 62 69 65 69 71 67 69 72 69 73 72
63 63 64 64 64 64 64 64 64 64 64 64 63 63 63 63 70 74 74 72 71 71 77 75 73 74 69 69 68 61 55 59 68 66 63 69 67 67 67 66 67 69 75 75 73
63 63 63 63 63 64 64 64 63 63 64 63 63 63 62 62 70 75 72 72 71 72 80 80 78 74 67 68 66 63 57 66 68 70 68 66 65 69 65 61 67 67 71 74 72
63 63 63 63 63 64 64 63 63 63 63 63 63 63 62 70 62 75 71 71 70 77 78 75 73 65 63 62 70 60 67 68 68 69 65 62 66 63 65 66 72 72 73 71 70
62 62 62 62 63 63 64 63 63 63 63 63 63 62 67 69 72 74 68 69 74 75 74 73 69 67 62 66 67 62 64 68 69 67 66 67 62 61 64 70 74 74 73 71 71
62 62 62 62 62 63 63 63 63 62 62 62 62 61 66 62 76 78 75 71 77 74 73 74 71 70 66 64 61 64 63 64 65 66 66 63 61 61 66 70 70 72 70 70 71
62 62 62 62 62 62 62 62 62 62 61 61 62 64 67 68 77 76 75 72 74 75 71 74 73 66 66 62 65 63 56 61 65 65 62 62 55 58 67 69 68 68 68 70 71
62 62 61 61 61 61 62 62 61 61 61 61 62 65 63 70 74 74 74 71 72 74 72 71 71 66 63 65 62 56 55 48 62 63 57 61 50 62 68 65 66 66 65 67 69
61 61 61 61 61 61 61 61 61 61 62 62 63 65 64 68 69 71 73 70 70 70 69 74 67 62 61 53 50 53 46 51 56 64 58 55 51 62 66 65 65 64 65 65 63
61 61 61 61 61 61 61 61 61 61 61 69 71 61 66 66 65 68 69 70 66 64 63 62 59 54 53 51 42 48 49 53 50 59 57 52 52 61 65 64 61 63 62 61 58
61 61 61 61 61 61 63 65 62 60 64 65 65 66 69 66 67 65 67 66 66 61 53 57 50 47 53 57 58 55 52 50 54 61 54 54 53 58 63 64 59 57 60 58 56
60 60 61 61 61 61 62 65 60 59 54 68 68 69 70 69 62 62 66 59 57 52 57 50 46 57 61 59 54 52 49 48 55 59 52 53 52 58 62 62 59 59 55 54 53
60 60 61 61 61 62 66 61 66 64 53 62 65 64 63 65 61 59 63 60 56 53 54 51 57 62 58 55 53 51 48 49 49 54 51 49 47 52 60 60 61 58 55 53 50
61 61 60 61 58 67 63 64 65 63 49 56 57 60 63 62 55 61 63 58 57 52 54 53 59 55 51 51 52 47 54 53 50 44 37 48 36 49 57 54 53 52 48 48 48
60 60 60 59 62 64 63 65 63 57 35 58 56 65 61 57 56 54 60 57 51 54 50 50 49 47 48 52 54 49 50 47 46 42 39 41 35 45 52 48 48 48 48 47 47
58 59 59 61 64 64 65 62 58 47 34 53 57 55 54 56 55 56 56 57 55 52 53 53 51 51 52 53 53 51 47 47 44 41 29 42 43 41 46 49 44 46 47 48 47
55 57 57 61 58 63 63 58 46 37 56 51 51 55 53 51 52 53 51 47 47 42 42 48 50 51 52 46 47 47 43 31 29 26 29 44 39 45 49 51 49 45 44 45 45
54 57 56 58 57 58 55 48 35 46 50 54 52 52 50 54 52 52 49 48 54 48 43 42 40 50 51 49 46 46 45 33 26 24 30 38 32 44 46 47 47 46 44 45 43
55 56 56 60 61 59 52 38 40 45 54 53 51 46 48 50 51 49 49 49 52 52 44 44 44 47 51 51 51 44 39 45 33 28 26 35 44 49 44 43 43 43 43 41 42
52 52 54 59 59 55 46 41 46 53 53 53 45 49 43 48 45 46 46 49 49 51 52 47 38 49 47 49 47 46 48 33 32 24 20 31 35 39 41 40 41 40 40 41 42
48 45 53 55 56 49 37 41 49 55 55 49 47 46 48 47 48 46 45 47 51 49 51 47 42 41 46 44 43 42 38 40 41 34 24 25 31 45 43 43 40 41 41 40 40
46 39 53 55 42 43 39 46 50 51 53 51 50 47 45 46 44 43 43 48 53 51 43 46 40 30 38 48 49 44 42 41 32 31 34 33 32 51 44 42 42 40 41 39 40
45 46 53 52 38 40 46 48 50 48 49 49 46 48 49 45 40 44 45 51 51 48 43 44 33 26 28 37 38 37 40 41 40 33 29 26 29 48 39 38 40 40 40 40 41
47 39 44 46 48 44 43 44 44 50 48 50 48 49 46 42 46 41 43 46 46 48 46 46 37 30 25 32 39 33 36 38 35 29 29 29 34 39 43 43 43 41 40 39 39
44 41 45 35 39 41 43 45 42 42 48 49 45 45 43 39 40 40 44 45 45 43 43 42 28 32 35 37 37 34 33 35 32 34 28 32 32 38 42 38 36 39 41 40 39
40 37 40 38 44 41 41 39 40 43 45 41 41 44 45 39 41 33 36 37 37 40 39 41 23 29 22 31 31 28 31 32 32 33 33 34 33 41 36 37 37 38 39 37 37
40 42 39 40 37 38 38 39 40 43 44 42 42 40 39 39 39 39 39 38 37 34 32 30 24 15 18 27 26 15 27 30 33 36 35 28 30 26 29 34 33 33 36 36 35
MSLP
1018.59 1018.53 1018.38 1018.26 1018.16 1018.03 1017.92 1017.76 1017.62 1017.37 1017.09 1016.88 1016.62 1016.30 1016.05 1015.66 1015.20 1015.20 1013.96 1013.08 1012.85 1013.13 1013.44 1013.43 1013.36 1013.15 1013.06 1012.88 1013.07 1012.91 1012.81 1012.00 1011.32 1010.94 1010.85 1010.95 1011.14 1011.02 1010.99 1011.06 1010.90 1010.75 1010.48 1010.13 1010.43
1018.66 1018.55 1018.41 1018.32 1018.17 1018.03 1017.93 1017.77 1017.60 1017.34 1017.07 1016.79 1016.53 1016.24 1015.98 1015.72 1014.96 1013.90 1012.99 1012.72 1012.96 1013.25 1013.44 1013.26 1013.10 1013.12 1013.01 1012.94 1013.13 1013.13 1012.70 1011.88 1011.22 1011.14 1011.33 1011.38 1011.38 1011.49 1011.46 1011.24 1010.96 1010.39 1009.70 1009.74 1009.94
1018.64 1018.53 1018.41 1018.28 1018.15 1018.00 1017.87 1017.69 1017.50 1017.24 1016.99 1016.72 1016.41 1016.10 1015.89 1015.73 1014.82 1013.15 1012.92 1012.78 1012.93 1013.12 1013.02 1012.93 1012.82 1012.98 1012.93 1012.72 1012.91 1012.74 1012.60 1011.97 1011.65 1011.58 1011.69 1011.94 1011.98 1011.80 1011.54 1011.40 1011.09 1010.72 1010.29 1010.07 1010.04
1018.62 1018.52 1018.42 1018.31 1018.15 1017.94 1017.79 1017.58 1017.37 1017.10 1016.90 1016.64 1016.34 1016.02 1015.75 1015.37 1014.49 1013.04 1012.95 1012.99 1013.08 1013.14 1012.99 1012.84 1012.92 1013.05 1012.95 1012.75 1012.52 1012.64 1012.56 1012.40 1012.11 1011.85 1012.13 1012.29 1012.23 1012.21 1011.82 1011.13 1010.59 1010.36 1010.04 1010.02 1010.08
1018.48 1018.42 1018.31 1018.17 1017.97 1017.80 1017.62 1017.42 1017.15 1016.87 1016.67 1016.50 1016.32 1016.09 1015.67 1015.01 1013.48 1013.09 1013.20 1013.36 1013.41 1013.41 1013.12 1012.88 1012.83 1012.83 1012.77 1012.44 1012.45 1012.51 1012.66 1012.67 1012.24 1012.16 1012.20 1012.21 1012.35 1012.62 1011.41 1010.82 1010.31 1009.98 1009.72 1009.71 1009.87
1018.30 1018.28 1018.17 1018.00 1017.75 1017.52 1017.36 1017.12 1016.81 1016.47 1016.24 1016.20 1016.06 1016.15 1015.80 1014.50 1012.86 1013.03 1013.12 1013.55 1013.39 1013.44 1013.18 1012.95 1012.67 1012.77 1012.77 1012.74 1012.94 1012.55 1012.77 1012.78 1012.54 1012.22 1012.09 1012.21 1012.14 1012.42 1010.85 1010.25 1009.94 1009.59 1009.61 1009.73 1009.90
1018.07 1018.06 1018.01 1017.90 1017.62 1017.32 1017.02 1016.75 1016.50 1016.16 1015.91 1015.88 1015.99 1015.72 1015.02 1013.82 1012.94 1013.08 1013.24 1013.33 1013.31 1013.30 1013.40 1013.05 1013.08 1013.31 1013.02 1012.93 1013.17 1013.13 1013.36 1012.81 1011.82 1011.56 1011.83 1012.11 1011.92 1011.82 1010.71 1010.28 1009.80 1009.92 1009.93 1009.92 1010.00
1017.84 1017.75 1017.68 1017.61 1017.40 1017.10 1016.75 1016.43 1016.14 1015.87 1015.64 1015.53 1015.65 1015.53 1014.36 1013.42 1013.13 1013.30 1013.43 1013.65 1013.70 1013.65 1013.70 1013.62 1013.55 1013.75 1013.56 1013.24 1013.40 1013.43 1013.37 1012.79 1011.49 1011.39 1012.28 1012.12 1011.91 1011.29 1010.70 1010.64 1009.93 1010.12 1010.36 1010.11 1010.40
1017.78 1017.69 1017.56 1017.38 1017.13 1016.81 1016.43 1016.09 1015.97 1015.92 1015.76 1015.62 1015.67 1015.04 1013.91 1013.65 1013.49 1013.50 1013.43 1013.37 1013.69 1013.85 1013.95 1014.01 1014.08 1014.03 1013.88 1014.04 1014.00 1013.46 1013.03 1012.36 1011.67 1011.18 1012.19 1012.49 1012.18 1011.18 1010.50 1010.45 1010.01 1010.02 1010.18 1010.39 1011.68
1017.63 1017.49 1017.47 1017.26 1016.95 1016.56 1016.00 1015.61 1015.74 1015.92 1015.77 1015.33 1014.86 1014.85 1013.81 1013.55 1013.69 1013.70 1013.67 1013.52 1013.75 1014.12 1014.27 1014.28 1014.29 1014.20 1014.20 1014.24 1013.77 1013.14 1012.83 1012.37 1012.05 1011.71 1011.83 1012.40 1012.08 1011.59 1010.47 1010.19 1010.33 1010.27 1010.16 1011.82 1013.14
1017.35 1017.29 1017.20 1017.07 1016.72 1016.44 1015.98 1015.58 1016.20 1016.03 1015.16 1014.04 1013.73 1013.32 1013.03 1013.78 1013.88 1013.80 1013.81 1013.86 1013.84 1014.05 1014.15 1014.27 1014.42 1013.94 1013.60 1013.48 1013.33 1013.20 1013.07 1012.74 1012.30 1012.05 1012.07 1011.82 1011.67 1011.38 1010.58 1009.92 1010.34 1010.88 1011.53 1012.79 1013.92
1016.98 1017.08 1017.04 1016.99 1016.71 1016.16 1016.08 1015.69 1016.53 1016.86 1015.43 1013.38 1012.80 1012.65 1012.76 1013.03 1013.60 1013.92 1014.16 1014.20 1014.00 1013.81 1013.78 1014.36 1013.93 1013.19 1012.95 1012.92 1013.05 1013.19 1013.23 1012.90 1012.39 1011.97 1012.28 1012.07 1011.75 1011.25 1010.43 1010.08 1010.51 1011.41 1012.91 1013.89 1015.01
1016.60 1016.70 1016.96 1016.92 1016.69 1016.25 1015.90 1016.45 1016.47 1016.37 1015.90 1013.25 1012.54 1012.61 1013.21 1013.58 1013.54 1013.84 1014.23 1013.94 1013.97 1013.86 1013.58 1013.41 1012.71 1012.67 1012.84 1012.96 1013.07 1013.29 1013.48 1013.24 1013.07 1012.60 1012.59 1012.51 1012.08 1011.36 1010.09 1009.76 1011.16 1012.67 1014.03 1015.32 1016.54
1016.38 1016.41 1016.63 1016.81 1017.21 1015.73 1016.00 1016.52 1016.53 1016.49 1015.62 1013.45 1013.15 1013.33 1013.34 1013.48 1014.01 1014.30 1014.08 1014.36 1013.78 1013.63 1013.60 1013.21 1012.94 1012.98 1012.95 1012.84 1013.26 1013.42 1013.22 1013.28 1013.56 1013.91 1013.70 1013.22 1012.34 1011.50 1010.35 1011.32 1012.41 1013.79 1015.29 1016.62 1017.51
1016.00 1016.32 1016.48 1016.83 1016.67 1015.70 1016.16 1016.41 1016.57 1016.67 1015.14 1012.96 1013.30 1013.61 1013.36 1013.57 1014.16 1014.56 1014.45 1014.19 1014.13 1013.72 1013.93 1012.95 1013.00 1013.24 1013.16 1012.92 1012.89 1013.28 1013.44 1013.77 1014.29 1014.57 1014.50 1013.92 1013.74 1011.00 1010.64 1012.47 1014.00 1015.16 1016.28 1017.30 1017.96
1015.88 1015.89 1016.23 1016.58 1016.47 1016.00 1016.01 1016.39 1016.59 1016.53 1014.19 1012.81 1013.04 1013.25 1013.32 1013.38 1013.76 1014.37 1014.51 1014.48 1014.04 1013.69 1013.33 1013.05 1013.33 1013.09 1012.69 1012.82 1013.01 1013.61 1013.88 1014.06 1014.47 1015.22 1014.99 1013.68 1013.10 1011.63 1011.27 1012.33 1014.49 1015.92 1016.73 1017.61 1018.40
1015.88 1015.67 1016.08 1016.07 1016.20 1015.99 1016.12 1016.32 1016.51 1015.22 1013.18 1012.77 1012.62 1012.82 1012.86 1013.02 1013.39 1013.70 1013.93 1014.16 1014.07 1013.90 1013.59 1013.10 1012.94 1012.91 1013.15 1013.48 1013.60 1014.26 1014.65 1014.78 1015.47 1015.70 1014.51 1013.64 1013.30 1011.91 1011.94 1012.64 1013.90 1015.71 1017.11 1017.87 1018.51
1015.72 1015.98 1015.90 1016.04 1016.35 1016.16 1016.56 1016.49 1015.52 1014.04 1012.93 1012.84 1012.66 1012.73 1012.64 1012.69 1012.87 1013.15 1013.26 1013.33 1013.12 1013.50 1013.66 1013.21 1013.04 1013.16 1013.30 1013.55 1013.66 1014.03 1014.54 1015.62 1016.11 1016.10 1015.48 1014.78 1013.88 1012.75 1013.27 1013.79 1014.60 1016.06 1017.34 1018.35 1018.98
1015.73 1016.02 1015.98 1015.86 1016.13 1016.43 1016.60 1015.94 1014.73 1013.82 1012.46 1012.46 1012.77 1012.80 1012.47 1012.57 1013.00 1012.69 1012.81 1012.39 1012.55 1013.14 1013.60 1013.16 1012.83 1013.04 1012.93 1013.33 1013.64 1014.26 1015.01 1015.79 1016.48 1016.65 1016.59 1015.05 1013.74 1013.23 1013.90 1014.92 1015.80 1017.03 1018.01 1018.86 1019.48
1016.00 1016.06 1015.98 1015.92 1016.25 1016.37 1016.41 1015.04 1014.18 1013.49 1012.82 1012.61 1012.68 1012.46 1012.52 1012.63 1013.16 1012.95 1012.66 1012.40 1012.97 1013.49 1013.70 1013.79 1013.92 1013.42 1013.66 1013.88 1013.99 1014.41 1015.24 1016.38 1017.58 1017.50 1016.28 1014.88 1014.39 1013.62 1014.58 1015.57 1016.30 1017.56 1018.24 1018.86 1019.36
1016.11 1016.42 1016.44 1016.24 1016.52 1016.28 1015.59 1015.00 1013.72 1013.24 1013.25 1013.39 1012.69 1012.51 1012.58 1013.01 1012.93 1012.87 1012.72 1012.77 1012.95 1013.34 1013.77 1014.71 1014.98 1014.61 1014.52 1014.48 1014.52 1015.30 1015.42 1015.82 1016.71 1016.95 1016.42 1015.80 1014.13 1013.42 1014.76 1015.67 1016.46 1017.48 1018.67 1019.15 1019.54
1016.13 1016.15 1016.30 1016.34 1017.09 1016.29 1015.37 1014.63 1014.20 1013.33 1013.31 1013.20 1013.20 1013.16 1013.13 1013.25 1013.52 1013.63 1013.11 1013.29 1013.71 1013.89 1014.43 1015.11 1015.83 1016.12 1015.21 1014.80 1014.83 1015.24 1015.72 1016.03 1016.59 1016.68 1016.39 1015.72 1014.76 1013.93 1015.34 1016.37 1017.09 1018.22 1019.02 1019.63 1019.82
1015.99 1015.89 1016.46 1016.53 1016.00 1015.40 1014.67 1013.99 1013.54 1013.51 1013.45 1013.39 1013.37 1013.32 1013.56 1013.78 1014.24 1013.61 1013.69 1013.57 1013.98 1014.70 1015.19 1015.83 1016.76 1017.31 1016.47 1015.73 1015.84 1016.06 1016.10 1016.32 1016.86 1016.86 1016.54 1016.49 1014.93 1015.08 1016.74 1017.26 1017.80 1018.25 1018.68 1018.95 1019.17
1015.37 1015.94 1016.48 1016.34 1015.28 1014.97 1014.52 1013.55 1013.37 1013.14 1013.47 1013.49 1013.35 1013.55 1013.90 1014.20 1014.32 1014.16 1014.23 1014.56 1014.94 1015.63 1016.16 1016.70 1017.51 1017.86 1017.79 1017.04 1017.02 1017.27 1017.03 1017.08 1017.69 1017.77 1017.07 1016.53 1015.99 1015.79 1016.19 1016.97 1017.15 1017.19 1017.25 1017.92 1018.74
1015.41 1014.90 1014.48 1015.47 1015.03 1014.97 1014.71 1013.51 1013.25 1013.37 1013.61 1013.65 1013.70 1013.91 1014.43 1014.67 1014.89 1015.04 1015.32 1015.60 1016.04 1016.40 1017.08 1017.71 1018.44 1018.94 1018.95 1018.78 1018.42 1018.20 1017.99 1017.50 1017.72 1017.65 1017.76 1016.58 1016.85 1016.47 1016.68 1016.71 1016.94 1017.04 1017.39 1018.07 1018.70
1015.59 1015.46 1015.48 1014.96 1014.35 1014.70 1014.47 1013.67 1013.69 1013.63 1013.76 1013.86 1014.16 1014.44 1014.93 1015.33 1015.74 1016.41 1016.62 1017.06 1017.16 1017.36 1018.04 1018.53 1019.05 1019.92 1020.17 1020.24 1019.85 1019.25 1018.34 1017.99 1018.05 1017.67 1017.36 1017.38 1017.00 1017.18 1017.35 1017.26 1017.40 1017.68 1018.05 1018.50 1018.77
1016.21 1015.76 1015.43 1014.69 1014.68 1014.45 1013.70 1013.66 1014.00 1014.51 1014.63 1014.73 1015.16 1015.65 1016.11 1016.81 1017.48 1018.00 1018.28 1018.59 1018.84 1018.95 1019.22 1019.79 1020.34 1021.35 1021.20 1021.40 1020.87 1020.09 1017.50 1017.64 1017.16 1017.30 1017.45 1017.73 1018.00 1018.33 1018.06 1018.13 1018.27 1018.42 1018.46 1018.55 1018.74
Wind_Speed
5 5 5 6 6 7 7 7 8 9 9 10 10 10 10 11 13 4 5 1 4 13 2 6 5 4 2 2 3 2 2 4 6 2 2 7 4 3 5 6 6 6 7 8 9
4 4 5 7 7 7 8 9 10 11 12 12 13 14 13 13 5 7 4 9 10 10 5 7 6 5 3 2 2 2 3 5 6 5 5 9 7 7 8 8 10 10 9 9 5
4 5 6 7 8 9 9 10 10 11 12 12 12 14 13 12 5 2 2 9 10 8 5 7 6 4 6 2 4 4 4 6 8 8 7 6 8 8 8 7 11 11 14 12 8
5 5 6 6 7 8 9 9 10 11 12 12 12 12 13 4 4 3 3 7 9 7 6 4 5 3 5 5 8 5 8 7 8 6 3 4 8 9 11 12 11 12 11 7 9
5 5 5 6 7 8 9 10 11 11 12 12 11 9 6 4 4 4 7 6 7 4 7 6 7 7 6 5 5 7 8 9 8 6 6 7 8 9 17 14 14 12 9 9 9
5 5 6 7 8 8 10 11 13 13 13 10 7 4 4 6 2 7 6 4 6 7 7 7 5 4 6 6 6 6 7 9 9 13 8 8 8 5 11 11 12 10 9 8 10
5 5 6 8 9 10 11 12 14 13 9 8 7 4 4 7 3 5 5 2 3 5 8 5 5 1 6 6 7 4 5 9 16 10 4 4 7 8 14 6 11 10 9 10 9
6 5 6 8 9 11 12 12 13 6 7 3 6 4 6 2 3 4 3 2 2 3 4 6 3 4 3 2 3 5 5 4 4 5 3 8 11 8 9 10 20 13 9 8 6
7 6 7 8 10 12 13 12 4 2 3 5 4 4 4 1 3 3 4 2 4 3 3 0 1 3 2 2 4 8 5 8 8 3 7 6 7 12 11 10 16 9 8 4 15
8 6 8 8 11 12 15 8 5 3 4 5 5 3 3 2 4 2 0 4 3 6 3 4 4 3 3 4 5 7 8 8 7 7 1 7 11 9 12 11 9 10 5 15 17
8 8 9 9 9 12 10 2 2 2 5 6 4 7 1 4 2 3 1 4 4 4 6 5 4 7 12 12 11 8 9 9 7 10 5 9 6 9 12 17 7 4 12 15 15
7 7 8 8 10 12 5 3 3 1 7 9 14 10 4 0 3 6 2 6 5 6 8 3 6 13 10 8 5 6 8 9 8 4 1 9 9 11 16 15 1 12 11 12 11
6 5 5 8 9 7 3 3 1 2 4 6 1 2 2 2 3 5 6 3 5 7 8 10 7 3 7 8 11 8 8 9 9 7 3 8 9 10 13 1 15 15 13 12 9
9 8 5 4 5 2 3 4 1 1 4 5 4 3 3 2 2 2 3 3 6 5 9 9 9 8 5 9 5 9 5 5 4 2 4 5 8 7 12 9 14 12 10 9 8
9 6 4 2 8 2 5 3 2 2 6 2 4 1 2 1 4 2 1 2 5 4 1 3 5 3 5 6 3 3 4 2 3 5 6 6 4 6 5 8 9 9 10 8 8
8 8 6 3 5 3 5 4 2 3 9 3 4 4 4 4 3 4 2 3 1 3 6 10 0 2 4 1 2 3 3 7 6 3 4 10 10 4 2 8 7 8 9 9 8
4 5 6 1 1 4 3 3 3 6 3 5 3 4 3 5 5 4 6 5 4 2 3 5 9 3 2 3 2 2 3 5 2 2 7 4 5 7 5 8 13 13 9 8 8
6 3 3 0 1 4 1 4 8 4 8 2 2 4 4 6 5 7 2 5 6 1 3 4 4 7 5 4 2 5 2 4 5 3 6 7 7 4 6 9 12 11 9 8 7
6 1 1 3 4 1 3 5 5 8 3 3 3 5 5 4 4 6 9 8 4 10 8 4 6 2 3 2 2 2 2 3 1 1 1 6 9 6 10 8 8 9 8 7 6
2 1 2 5 4 3 3 7 6 5 2 2 6 4 4 8 7 5 5 4 5 3 3 3 5 3 3 3 3 4 2 1 1 3 6 5 6 8 3 8 8 8 8 7 6
4 3 1 2 2 1 5 6 6 7 4 5 6 10 8 8 4 7 4 4 6 7 5 3 2 6 5 5 6 1 3 4 4 5 3 8 8 2 6 7 10 8 6 6 6
2 3 3 4 3 3 4 7 6 6 4 8 4 6 6 2 2 5 4 4 5 4 3 3 1 5 7 11 12 5 8 5 4 8 7 9 11 12 7 8 8 7 5 5 4
3 3 3 2 6 9 8 11 10 6 9 7 7 8 5 10 6 10 9 1 8 3 1 3 2 2 9 3 4 3 2 3 6 2 11 9 10 5 8 6 5 5 8 8 7
3 3 3 5 8 8 13 15 14 7 12 10 6 6 6 8 7 4 2 3 5 5 7 4 3 6 8 9 9 8 12 10 5 5 10 14 17 15 10 9 10 12 11 8 7
2 4 5 6 12 14 7 5 13 15 8 7 7 15 13 9 9 12 9 7 6 9 4 3 6 5 12 14 14 13 12 15 14 16 15 22 22 23 20 8 4 6 6 5 6
3 2 1 3 7 17 17 13 14 7 8 7 10 5 8 11 9 3 4 3 2 3 5 5 5 1 7 6 8 14 19 18 20 23 23 23 23 9 5 4 4 3 4 2 2
1 0 1 4 3 8 14 15 9 8 4 4 2 1 6 4 8 6 6 4 3 1 2 2 2 3 11 4 6 8 22 19 20 20 19 19 12 2 5 4 4 5 6 4 1
Wind_Direction
50 35 23 15 5 1 357 354 350 349 345 337 331 328 323 321 302 212 249 100 159 165 226 152 207 201 230 197 286 292 303 277 290 357 354 135 195 154 240 263 269 225 218 233 165
19 7 1 354 350 347 344 344 342 341 337 335 331 328 329 333 272 248 123 117 138 157 195 184 191 180 244 190 206 246 233 266 327 342 330 326 331 330 324 294 296 297 270 246 216
340 342 343 341 339 339 338 336 331 332 329 328 325 323 326 322 279 95 144 144 164 183 272 240 322 183 239 205 203 216 232 315 320 342 30 334 313 291 284 282 259 283 310 316 329
308 317 325 326 326 327 325 323 319 320 320 317 316 315 324 268 304 89 195 153 171 202 251 198 231 203 230 255 218 248 265 273 287 307 348 280 306 302 281 259 260 273 277 297 297
287 299 307 312 316 321 323 321 315 314 311 307 304 308 300 228 264 107 124 138 160 225 218 207 228 223 250 256 306 257 248 274 298 309 277 295 281 272 282 273 267 266 283 276 287
284 294 302 305 309 320 320 317 317 312 310 305 295 297 251 237 110 126 119 148 191 224 225 234 246 4 302 277 263 326 343 294 276 265 258 260 274 302 279 281 270 267 274 295 287
271 284 300 308 314 318 315 315 315 315 309 294 268 218 254 260 30 98 145 202 251 236 256 257 3 324 348 306 1 1 312 291 270 248 235 126 299 226 256 304 304 298 307 306 314
262 275 296 311 315 314 313 314 317 313 323 279 196 227 253 353 52 164 150 85 276 3 334 5 33 287 264 359 262 240 241 295 259 153 167 122 272 299 328 330 296 306 290 289 9
269 282 295 307 310 309 307 314 299 321 29 130 187 249 251 224 170 60 300 180 118 116 38 71 237 237 150 226 271 228 250 245 287 210 128 168 243 283 279 271 280 304 296 341 65
265 271 284 293 301 308 308 289 179 265 228 236 267 262 160 121 114 115 24 163 147 142 137 187 212 209 228 219 230 263 299 310 319 316 276 197 246 280 294 284 288 300 309 81 63
259 265 272 284 298 306 325 230 235 192 218 268 301 281 254 89 179 180 183 161 156 207 188 201 209 202 228 228 249 288 278 281 281 287 288 277 265 270 268 288 302 47 92 82 76
248 258 275 290 299 303 285 5 67 89 301 265 260 250 49 89 227 148 255 191 198 203 195 136 222 237 257 281 285 305 288 276 282 267 248 272 281 286 277 259 47 96 68 68 64
216 226 278 293 309 294 12 63 83 205 248 267 2 10 40 164 263 129 184 242 210 231 202 223 251 256 237 264 262 248 248 272 259 292 305 271 267 255 270 196 95 81 81 69 61
214 207 216 293 306 95 118 142 152 347 271 182 143 95 149 260 164 9 4 315 223 253 245 230 252 274 285 249 262 274 313 292 335 359 237 76 291 248 263 114 96 87 75 71 65
194 206 184 165 320 239 122 141 131 243 286 73 131 61 114 266 130 113 100 162 274 217 230 242 130 178 222 229 183 204 20 327 249 239 315 226 247 251 224 139 115 98 96 88 78
181 170 141 197 238 103 134 140 214 214 243 138 127 146 185 173 124 138 181 237 80 268 220 251 32 241 222 69 164 120 248 217 213 178 266 212 207 289 170 142 127 111 102 98 86
120 138 154 343 215 145 153 211 228 232 252 137 112 187 229 147 151 201 169 184 223 260 194 193 205 165 57 249 95 133 265 321 301 149 222 30 329 243 126 115 148 136 118 106 94
120 123 185 154 320 89 112 64 206 192 256 86 109 219 236 166 160 171 227 237 216 19 290 255 309 157 176 235 44 208 243 182 263 260 297 3 249 237 91 74 84 98 107 100 89
131 167 151 190 166 167 220 204 205 207 223 236 191 249 233 178 292 182 209 237 154 183 199 261 225 124 133 102 144 106 213 36 359 101 76 246 279 214 119 108 113 126 118 117 118
95 73 193 106 148 207 219 213 211 277 51 147 209 228 248 261 185 186 231 58 98 65 27 22 305 258 144 118 233 176 89 78 24 240 226 249 272 263 198 166 148 151 148 150 141
93 139 97 124 224 168 206 219 227 249 198 228 237 251 272 281 249 236 217 146 157 164 108 57 177 256 4 196 221 269 231 185 249 208 237 267 254 8 83 159 167 153 118 109 89
153 114 144 163 155 205 206 185 226 202 241 241 279 278 258 264 240 272 236 265 128 120 137 152 107 262 243 302 306 275 248 253 233 255 240 248 257 304 44 82 62 89 116 102 96
151 146 141 225 216 220 219 222 232 189 215 208 223 208 229 243 252 231 245 270 80 113 157 119 176 262 316 274 18 194 63 319 313 309 261 268 267 20 79 93 131 191 194 195 190
141 175 143 218 255 240 217 235 229 196 237 241 257 233 242 248 256 258 225 113 101 98 88 68 233 201 227 256 322 304 304 292 251 261 281 265 287 291 285 241 219 207 198 187 166
191 208 166 195 225 227 268 285 226 229 204 195 237 236 243 241 239 249 253 254 146 132 142 179 246 250 260 272 283 275 274 275 273 267 256 271 277 279 292 309 39 25 71 97 150
182 183 196 303 205 207 214 228 242 258 223 209 231 262 229 249 231 189 80 21 321 129 173 195 245 260 274 273 290 287 275 270 272 269 268 269 269 305 333 92 30 45 127 181 300
55 103 256 180 204 200 215 226 238 222 239 23 323 251 276 49 61 63 36 3 324 188 161 306 90 85 258 234 282 285 247 251 253 258 263 268 275 345 353 17 42 15 351 324 354